カタログに戻る

STARLINK-32107

運用中通信VLEO
NORAD 59694·PAYLOAD·🇺🇸 United States

打ち上げ May 8, 2024 から Cape Canaveral Space Force Station

Loading…

次のパス (今後24時間)

TLE

最新Source: CelesTrak SupGP

元期: Sep 15, 2026, 02:49 UTC

1 59694C 24086N   26258.11784722 -.00021359  00000+0 -77342-3 0  2583
2 59694  43.0039  70.3620 0001685 270.8828 308.5634 15.27596960    17

AllMySatでSTARLINK-32107をリアルタイム追跡

Download on the App Store